Regional Weather Roundup
Issued by NWS

Home | Current Version | Previous Version | Graphics & Text | Print | Product List | Glossary On
Versions: 1 2 3 4 5 6 7 8 9 10 11 12 13 14 15 16 17 18 19 20 21 22 23 24 25 26 27 28 29 30 31 32 33 34 35 36 37 38 39 40 41 42 43 44 45 46 47 48 49 50
000
ASUS45 KTFX 261910
RWRMT
MONTANA HOURLY WEATHER ROUNDUP
NATIONAL WEATHER SERVICE MISSOULA MT
1200 PM MST THU FEB 26 2015

NOTE: "FAIR" INDICATES FEW OR NO CLOUDS BELOW 12,000 FEET WITH NO
SIGNIFICANT WEATHER AND/OR OBSTRUCTIONS TO VISIBILITY.

MTZ001>007-043-262000-
WEST OF THE DIVIDE

CITY           SKY/WX    TMP DP  RH WIND       PRES   REMARKS
KALISPELL      CLEAR     31  11  43 W5        30.18F
MISSOULA       SUNNY     32  14  47 E20       30.16F
BUTTE          MOSUNNY   20  11  68 CALM      30.07F
$$

MTZ008-014-015-262000-
SOUTHWEST MONTANA

CITY           SKY/WX    TMP DP  RH WIND       PRES   REMARKS
HELENA         MOSUNNY   20   6  55 CALM      30.24F
BOZEMAN        CLOUDY    18  10  71 S5        30.19F WCI  11
DILLON         PTSUNNY   21  13  71 NE12      30.08F WCI   9
$$

MTZ009-010-012-262000-
EAST SLOPES

CITY           SKY/WX    TMP DP  RH WIND       PRES   REMARKS
CUT BANK       CLOUDY     9   5  84 SE12      30.28F WCI  -6
GREAT FALLS    CLOUDY    12   8  84 E9        30.31F WCI   0
$$

MTZ011-013-028-029-040-262000-
CENTRAL MONTANA

CITY           SKY/WX    TMP DP  RH WIND       PRES   REMARKS
HAVRE          SUNNY     16   4  59 E8        30.44F WCI   5
LEWISTOWN      MOSUNNY   12   2  64 E7        30.29F WCI   1
BILLINGS       MOSUNNY   13   2  61 NE9       30.37F WCI   1
LIVINGSTON     CLOUDY    12   3  67 E16       30.22F WCI  -5
$$

MTZ016>027-032-033-262000-
EASTERN PLAINS

CITY           SKY/WX    TMP DP  RH WIND       PRES   REMARKS
GLASGOW        SUNNY      6 -12  43 SW5       30.55F WCI  -3
WOLF POINT     SUNNY      9  -9  44 W6        30.59F WCI  -1
SIDNEY         SUNNY      7  -6  56 NW6       30.61F WCI  -3
JORDAN           N/A      9  -3  58 CALM      30.50F
GLENDIVE       SUNNY      9  -6  52 N3        30.54F
MILES CITY     SUNNY      8  -1  66 N3        30.51F
BAKER          SUNNY      8  -2  63 VRB5      30.48F WCI   0
$$

REGIONAL REPORTS...DAKOTAS

CITY           SKY/WX    TMP DP  RH WIND       PRES   REMARKS
WILLISTON      SUNNY      5  -6  60 N5        30.59F WCI  -4
MINOT          SUNNY      2  -9  60 W15       30.55F WCI -17
DICKINSON      SUNNY      6  -5  60 NW10      30.47F WCI  -9
BISMARCK       SUNNY      7  -7  52 NW12      30.57F WCI  -8
BUFFALO SD       N/A      6  -7  54 N10       30.38F WCI  -9
RAPID CITY     SUNNY      6  -1  73 N16       30.42S WCI -12
$$

REGIONAL REPORTS...WYOMING/IDAHO/WASHINGTON

CITY           SKY/WX    TMP DP  RH WIND       PRES   REMARKS
GILLETTE       CLOUDY     7  -1  70 N5        30.31S WCI  -2
SHERIDAN       CLOUDY     8   0  69 CALM      30.34F
BUFFALO WY     CLOUDY     6  -1  73 N3        30.25S
CODY           PTSUNNY   10   7  85 NE10      30.18F WCI  -3
YELLOWSTONE LA   N/A     14   3  61 VRB3      29.95F
IDAHO FALLS    MOSUNNY   37  12  35 NE9       30.00F
SALMON         MOSUNNY   36  19  51 CALM      30.03F
BOISE          CLOUDY    46  35  65 W12       30.05F
SPOKANE        CLOUDY    38  28  67 NE5       30.10S
$$

REGIONAL REPORTS...CANADIAN

CITY           SKY/WX    TMP DP  RH WIND       PRES   REMARKS
EDMONTON       SUNNY     10   0  61 S16G23    30.30F WCI  -7
CALGARY        CRYSTALS  12   7  79 S16G22    30.20F WCI  -4
LETHBRIDGE     MOSUNNY   16   9  73 S10G22    30.30F WCI   3
MEDICINE HAT   SUNNY     10  -4  52 SE7       30.45F WCI   0
SWIFT CURRENT  SUNNY      5  -6  61 S9        30.46F WCI  -9
REGINA         SUNNY     -8 -13  77 W6        30.59F WCI -21
SASKATOON      SUNNY     -4  -9  77 SW8       30.60F WCI -19
$$




USA.gov is the U.S. government's official web portal to all federal, state and local government web resources and services.